Williams, AZ

2:28 PM MST on January 19, 2017 (GMT -0700)
Grand Canyon National Park

Weather History for KGCN - June, 2013

Change the Weather History Date:

Thursday, June 27, 2013

  Actual Average Record
Temperature  
Mean Temperature 68 °F -  
Max Temperature 91 °F 82 °F 93 °F (1990)
Min Temperature 44 °F 39 °F 30 °F (2005)
Cooling Degree Days 2    
Growing Degree Days 18 (Base 50)    
Moisture  
Dew Point 23 °F    
Average Humidity 21    
Maximum Humidity 47    
Minimum Humidity 6    
Precipitation  
Precipitation 0.00 in - - ()
Sea Level Pressure  
Sea Level Pressure 30.06 in    
Wind  
Wind Speed 4 mph (SSE)    
Max Wind Speed 10 mph    
Max Gust Speed 17 mph    
Visibility 10 miles    
Events      
Averages and records for this station are not official NWS values.
T = Trace of Precipitation, MM = Missing Value Source: NWS Daily Summary

Daily Weather History Graph

Daily Weather History Graph

Search for Another Location

Airport or City:

Trip Planner

Search our weather history database for the weather conditions in past years. The results will help you decide how hot, cold, wet, or windy it might be!

Date:

Astronomy

Jun. 27, 2013 Rise Set
Actual Time 5:14 AM MST 7:49 PM MST
Civil Twilight 4:43 AM MST 8:19 PM MST
Nautical Twilight 4:06 AM MST 8:56 PM MST
Astronomical Twilight 3:24 AM MST 9:38 PM MST
Moon 10:59 PM MST (6/27) 10:09 AM MST (6/27)
Length of Visible Light 15h 35m
Length of Day
14h 35m
Waning Gibbous, 75% of the Moon is Illuminated
Jun 27
Waning Gibbous
Jun 29
Last Quarter
Jul 8
New
Jul 15
First Quarter
Jul 22
Full

Hourly Weather History & Observations

Time (MST) Temp. Dew Point Humidity Pressure Visibility Wind Dir Wind Speed Gust Speed Precip Events Conditions
12:54 AM 53.1 °F 25.0 °F 34% 30.05 in 10.0 mi ENE 5.8 mph - N/A   Clear
1:54 AM 51.1 °F 26.1 °F 38% 30.05 in 10.0 mi NE 6.9 mph - N/A   Clear
2:54 AM 48.0 °F 26.1 °F 42% 30.05 in 10.0 mi Calm Calm - N/A   Clear
3:54 AM 45.0 °F 24.1 °F 44% 30.08 in 10.0 mi Calm Calm - N/A   Clear
4:54 AM 44.1 °F 25.0 °F 47% 30.08 in 10.0 mi Calm Calm - N/A   Clear
5:54 AM 46.9 °F 27.0 °F 46% 30.09 in 10.0 mi Calm Calm - N/A   Clear
6:54 AM 59.0 °F 32.0 °F 36% 30.08 in 10.0 mi Calm Calm - N/A   Clear
7:54 AM 73.0 °F 36.0 °F 26% 30.06 in 10.0 mi South 4.6 mph - 0.00 in   Clear
8:54 AM 79.0 °F 36.0 °F 21% 30.10 in 10.0 mi Calm Calm - N/A   Clear
9:54 AM 82.9 °F 34.0 °F 17% 30.10 in 10.0 mi Variable 3.5 mph - N/A   Clear
10:54 AM 87.1 °F 30.9 °F 13% 30.10 in 10.0 mi SSW 8.1 mph - N/A   Clear
11:54 AM 89.1 °F 26.1 °F 10% 30.09 in 10.0 mi Variable 6.9 mph 17.3 mph N/A   Clear
12:54 PM 89.1 °F 18.0 °F 7% 30.08 in 10.0 mi East 3.5 mph - N/A   Clear
1:54 PM 90.0 °F 19.0 °F 7% 30.06 in 10.0 mi SSW 9.2 mph - N/A   Clear
2:54 PM 91.9 °F 16.0 °F 6% 30.05 in 10.0 mi South 8.1 mph 17.3 mph N/A   Clear
3:54 PM 91.9 °F 15.1 °F 6% 30.03 in 10.0 mi Variable 3.5 mph - N/A   Clear
4:54 PM 91.9 °F 16.0 °F 6% 30.03 in 10.0 mi Variable 3.5 mph - N/A   Clear
5:54 PM 91.9 °F 14.0 °F 6% 30.01 in 10.0 mi WSW 10.4 mph 17.3 mph N/A   Clear
6:54 PM 89.1 °F 17.1 °F 7% 29.98 in 10.0 mi WSW 5.8 mph - N/A   Clear
7:54 PM 71.1 °F 15.1 °F 12% 30.01 in 10.0 mi Calm Calm - N/A   Clear
8:54 PM 62.1 °F 16.0 °F 17% 30.04 in 10.0 mi Calm Calm - N/A   Clear
9:54 PM 57.9 °F 14.0 °F 18% 30.04 in 10.0 mi ENE 3.5 mph - N/A   Clear
10:54 PM 55.9 °F 18.0 °F 23% 30.04 in 10.0 mi ENE 3.5 mph - N/A   Clear
11:54 PM 54.0 °F 17.1 °F 23% 30.04 in 10.0 mi Calm Calm - N/A   Clear